Reflectivity
-19 -20 -19 20 -3 -20 -13 -20 -19 -20 -1 -3 -20 -13 -20 -1 -4 7 12 8 5 22
-16 -17 -17 18 31 32 -20 -20 -20 6 4 -18 -20 -14 -20 -2 7 16 -6 -0 22 5
-8 -20 -2 20 36 15 -20 -20 -20 -20 1 -9 -5 16 8 11 15 5 13 9 3 9
-18 -20 -14 33 6 12 -7 -20 -20 -16 1 15 13 -6 1 9 14 11 12 12 15 24
3 -9 35 28 27 25 -20 -20 -20 8 12 -0 -20 -19 -20 -20 -20 -4 -19 24 19 26
19 23 21 27 7 -18 -20 -20 -20 -20 -20 -15 -20 -20 3 -20 -20 -20 8 29 23 32
28 33 27 26 -12 -20 -20 -20 -20 -5 11 8 -17 -20 -20 -20 -17 -2 13 25 22 22
18 33 38 25 22 -9 -20 -15 -14 -17 -16 -20 -20 -20 -20 -20 0 -8 10 19 23 21
22 33 37 37 17 12 13 12 -20 -20 -20 -20 -20 3 -9 -20 13 25 19 22 28 29
29 31 30 39 40 15 21 13 -13 -15 -20 -20 -20 -19 2 7 -20 -3 20 3 16 23
25 34 40 42 32 27 19 8 1 10 -20 -20 -20 -20 5 7 6 5 18 11 10 23
38 25 38 38 32 30 16 3 -4 -20 -20 -20 -20 -10 -3 11 7 0 22 20 27 -12
24 28 34 38 37 33 23 28 20 8 -3 15 -20 7 -4 7 -14 14 13 -3 27 25
-20 -10 19 19 25 33 30 24 29 15 13 10 11 7 9 14 5 -1 5 15 15 12
Wind_Speed
7 5 4 6 8 10 10 9 10 9 8 11 8 8 9 8 7 9 8 9 9 7
9 8 6 6 5 7 9 7 8 8 8 9 10 10 10 6 8 9 10 8 11 9
8 8 9 9 7 10 8 7 8 9 9 9 8 8 8 6 7 9 8 9 12 12
7 9 8 7 7 9 11 9 9 10 9 7 6 6 5 5 6 9 9 9 11 13
9 7 13 9 8 8 9 8 7 8 7 6 6 6 6 7 7 9 10 11 14 15
7 5 8 10 9 8 8 6 6 6 6 6 6 5 5 6 6 8 8 12 13 15
12 1 8 9 10 10 9 8 7 7 7 5 4 4 1 4 4 6 4 4 9 12
13 15 11 7 10 11 10 9 8 8 7 6 7 6 5 3 3 4 5 7 7 6
15 15 13 14 12 13 10 10 10 10 9 8 7 11 11 3 6 7 6 7 8 9
14 13 18 15 10 13 11 10 12 11 10 10 9 15 16 14 9 9 8 7 7 8
15 13 16 11 14 13 12 13 11 11 10 10 10 16 18 17 12 11 11 11 9 9
14 12 10 11 14 12 13 13 13 11 12 12 11 18 16 13 12 13 13 12 11 11
14 13 18 13 9 11 11 12 10 12 13 17 12 18 18 13 9 13 10 11 13 19
13 13 12 13 14 10 11 12 12 13 13 14 15 16 21 19 11 10 10 10 10 10
Wind_Direction
151 149 157 193 173 171 173 166 159 165 179 190 171 183 189 188 187 196 205 204 200 196
155 149 146 150 177 188 154 144 156 175 187 190 189 185 183 182 190 199 203 198 194 192
150 141 145 123 186 168 140 140 167 181 195 183 176 179 182 193 202 207 211 206 192 189
144 144 139 135 165 164 159 155 169 179 162 153 161 170 171 196 206 221 223 206 193 194
149 149 125 181 179 176 146 146 164 153 145 162 178 192 196 216 213 227 233 235 222 190
91 140 139 181 159 136 128 127 138 140 154 172 183 174 196 206 213 231 238 220 196 180
9 163 173 166 143 133 127 118 100 79 68 61 67 69 278 217 225 229 221 203 182 176
20 23 11 96 100 87 83 81 85 94 81 60 50 21 321 321 227 129 97 64 40 36
30 33 23 12 74 80 75 77 78 65 66 55 46 13 22 113 86 73 86 93 79 47
53 45 33 28 39 68 71 74 71 67 64 59 43 46 53 57 66 65 59 71 76 82
36 40 51 30 36 48 61 62 64 61 62 65 51 53 67 71 69 65 54 59 63 77
33 37 54 48 44 46 53 58 59 56 54 57 57 60 65 76 78 70 62 56 56 61
34 33 46 42 45 47 56 63 63 60 53 53 55 59 70 75 79 80 74 64 63 62
30 39 44 47 44 40 57 58 54 60 56 55 51 55 68 74 77 84 78 74 66 65